KQ4GHV Weather Reports


time (UTC)temp
F
wind
direction
speed
knots
gust
knots
rain 1hr
in
rain 24hr
in
rain mn
in
humidity
%
barometer
mb
20260504204512 86 17 2.6 9.6 0.00 0.00 0.00 43 1013.5
20260504203012 85 199 2.6 7.8 0.00 0.00 0.00 45 1013.4
20260504201512 85 104 2.6 9.6 0.00 0.00 0.00 43 1013.7
20260504200017 85 100 0.0 4.3 0.00 0.00 0.00 43 1013.7
20260504194513 85 44 4.3 10.4 0.00 0.00 0.00 44 1013.9
20260504193011 85 30 1.7 4.3 0.00 0.00 0.00 42 1014.1
20260504191514 84 41 0.9 6.1 0.00 0.00 0.00 43 1014.3
20260504190018 84 342 0.9 7.0 0.00 0.00 0.00 45 1014.6
20260504184524 84 78 1.7 8.7 0.00 0.00 0.00 43 1014.9
20260504183023 84 43 3.5 7.8 0.00 0.00 0.00 43 1015.2
20260504181513 84 43 2.6 8.7 0.00 0.00 0.00 43 1015.5
20260504180015 84 153 1.7 7.8 0.00 0.00 0.00 42 1015.5
20260504174516 84 9 1.7 8.7 0.00 0.00 0.00 43 1015.7
20260504173018 84 141 2.6 7.8 0.00 0.00 0.00 44 1015.9
20260504171517 84 301 0.9 10.4 0.00 0.00 0.00 45 1016.0
20260504081529 65 9 0.9 5.2 0.00 0.02 0.00 82 1015.3
20260504050010 66 56 0.0 0.9 0.00 0.05 0.00 82 1016.3
20260504044518 67 56 0.0 0.0 0.00 0.06 0.00 81 1016.8
20260504043020 67 56 0.0 0.0 0.00 0.10 0.00 80 1017.0
20260504041523 67 56 0.0 0.0 0.00 0.11 0.00 79 1017.1
20260504040007 68 55 0.0 0.0 0.00 0.12 0.00 78 1017.1
20260504034511 68 44 0.0 1.7 0.00 0.13 0.12 78 1017.0
20260504033020 69 45 0.0 0.0 0.00 0.13 0.12 77 1017.0
20260504031521 69 38 0.0 0.0 0.00 0.13 0.12 77 1016.9
20260504030034 69 38 0.0 1.7 0.00 0.14 0.12 77 1016.9
20260504024512 69 76 0.0 1.7 0.00 0.14 0.12 77 1016.8
20260504023015 69 67 0.9 2.6 0.00 0.14 0.12 77 1016.8
20260504021516 70 65 1.7 3.5 0.00 0.14 0.12 76 1016.5
20260504020034 70 54 0.9 2.6 0.00 0.14 0.12 75 1016.5
20260504014526 71 63 0.0 1.7 0.00 0.14 0.12 74 1016.4
20260504013011 71 69 0.0 1.7 0.00 0.14 0.12 73 1016.2
20260504011514 72 60 0.0 1.7 0.00 0.14 0.12 72 1016.2
20260504010022 72 59 0.0 1.7 0.00 0.14 0.12 71 1016.0
20260504004538 73 63 0.9 2.6 0.00 0.14 0.12 70 1015.7
20260504003007 74 59 0.0 0.9 0.00 0.14 0.12 68 1015.4
20260504001529 74 78 0.0 2.6 0.00 0.14 0.12 67 1015.1
20260504000019 75 77 0.0 3.5 0.00 0.14 0.12 66 1015.1
20260503234527 76 56 0.0 1.7 0.00 0.14 0.12 64 1015.2
20260503233023 76 69 0.0 4.3 0.00 0.14 0.12 63 1015.0
20260503231513 77 40 0.9 5.2 0.00 0.14 0.12 61 1015.0
20260503230022 78 41 0.9 5.2 0.00 0.15 0.12 61 1015.0
20260503224522 78 52 0.9 7.0 0.00 0.16 0.12 60 1014.9
20260503223027 78 57 0.9 3.5 0.00 0.16 0.12 60 1014.9
20260503221531 79 40 1.7 6.1 0.00 0.18 0.12 57 1014.9
20260503220027 80 105 0.9 3.5 0.00 0.20 0.12 58 1014.8
20260503214529 79 60 0.0 3.5 0.00 0.20 0.12 58 1014.9
20260503213032 80 63 2.6 5.2 0.00 0.21 0.12 56 1014.9
20260503211526 80 10 1.7 4.3 0.00 0.21 0.12 55 1014.8
20260503210028 81 32 0.9 4.3 0.00 0.22 0.12 54 1014.9